TimeCST,TemperatureF,Dew PointF,Humidity,Sea Level PressureIn,VisibilityMPH,Wind Direction,Wind SpeedMPH,Gust SpeedMPH,PrecipitationIn,Events,Conditions,WindDirDegrees,DateUTC
12:15 AM,15.4,2.3,56,30.22,10.0,NW,10.4,-,N/A,,Overcast,310,2014-02-25 06:15:00
12:35 AM,14.9,2.5,58,30.22,10.0,NW,9.2,-,N/A,,Overcast,320,2014-02-25 06:35:00
12:55 AM,14.7,2.7,59,30.22,10.0,NW,8.1,-,N/A,,Overcast,310,2014-02-25 06:55:00
1:15 AM,14.7,2.3,58,30.22,10.0,NW,8.1,-,N/A,,Overcast,310,2014-02-25 07:15:00
1:35 AM,14.5,1.9,57,30.22,10.0,NW,9.2,-,N/A,,Overcast,310,2014-02-25 07:35:00
1:55 AM,14.0,3.9,64,30.21,10.0,NW,9.2,-,N/A,,Overcast,320,2014-02-25 07:55:00
2:15 AM,13.3,5.4,71,30.21,7.0,NW,8.1,-,N/A,,Overcast,320,2014-02-25 08:15:00
2:35 AM,13.1,6.4,75,30.21,5.0,NW,8.1,-,N/A,,Overcast,310,2014-02-25 08:35:00
2:55 AM,12.4,6.4,77,30.21,5.0,WNW,8.1,-,N/A,,Mostly Cloudy,300,2014-02-25 08:55:00
3:15 AM,12.0,6.4,78,30.21,7.0,WNW,8.1,-,N/A,,Scattered Clouds,300,2014-02-25 09:15:00
3:35 AM,11.3,5.9,79,30.21,7.0,WNW,6.9,-,N/A,,Scattered Clouds,290,2014-02-25 09:35:00
3:55 AM,10.0,5.0,80,30.21,10.0,West,6.9,-,N/A,,Clear,280,2014-02-25 09:55:00
4:15 AM,9.5,4.6,81,30.20,10.0,WNW,5.8,-,N/A,,Clear,290,2014-02-25 10:15:00
4:35 AM,8.1,3.2,81,30.20,10.0,West,6.9,-,N/A,,Clear,270,2014-02-25 10:35:00
4:55 AM,8.1,3.6,82,30.20,10.0,West,6.9,-,N/A,,Clear,280,2014-02-25 10:55:00
5:15 AM,7.0,2.5,82,30.20,10.0,West,6.9,-,N/A,,Clear,260,2014-02-25 11:15:00
5:35 AM,7.5,3.6,84,30.20,10.0,West,5.8,-,N/A,,Clear,280,2014-02-25 11:35:00
5:55 AM,7.3,3.4,84,30.20,10.0,West,4.6,-,N/A,,Clear,280,2014-02-25 11:55:00
6:15 AM,7.7,3.6,83,30.20,10.0,Calm,Calm,-,N/A,,Clear,0,2014-02-25 12:15:00
6:35 AM,7.3,2.8,82,30.20,10.0,West,6.9,-,N/A,,Clear,280,2014-02-25 12:35:00
6:55 AM,7.2,2.3,80,30.20,7.0,West,6.9,-,N/A,,Clear,280,2014-02-25 12:55:00
7:15 AM,7.5,2.5,80,30.21,7.0,West,9.2,-,N/A,,Clear,280,2014-02-25 13:15:00
7:35 AM,8.2,2.3,77,30.21,10.0,West,5.8,-,N/A,,Clear,280,2014-02-25 13:35:00
7:55 AM,9.0,2.8,76,30.21,10.0,WNW,8.1,-,N/A,,Clear,290,2014-02-25 13:55:00
8:15 AM,9.5,2.3,73,30.20,10.0,WNW,11.5,-,N/A,,Clear,290,2014-02-25 14:15:00
8:35 AM,9.9,2.1,71,30.21,10.0,WNW,11.5,-,N/A,,Clear,290,2014-02-25 14:35:00
8:55 AM,10.2,1.8,69,30.22,10.0,WNW,9.2,-,N/A,,Clear,290,2014-02-25 14:55:00
9:15 AM,10.8,0.9,64,30.22,10.0,WNW,9.2,-,N/A,,Clear,290,2014-02-25 15:15:00
9:35 AM,11.3,0.3,61,30.21,10.0,WNW,10.4,-,N/A,,Clear,290,2014-02-25 15:35:00
9:55 AM,12.2,0.1,59,30.21,10.0,West,11.5,-,N/A,,Clear,280,2014-02-25 15:55:00
10:15 AM,12.4,-0.6,56,30.20,10.0,WNW,12.7,-,N/A,,Clear,290,2014-02-25 16:15:00
10:35 AM,13.1,-1.1,53,30.20,10.0,WNW,10.4,-,N/A,,Clear,290,2014-02-25 16:35:00
10:55 AM,13.8,-1.7,50,30.19,10.0,WNW,9.2,-,N/A,,Clear,290,2014-02-25 16:55:00
11:15 AM,14.0,-2.0,49,30.20,10.0,West,13.8,18.4,N/A,,Clear,280,2014-02-25 17:15:00
11:35 AM,14.5,-2.6,47,30.20,10.0,WNW,11.5,19.6,N/A,,Clear,300,2014-02-25 17:35:00
11:55 AM,14.9,-3.1,45,30.19,10.0,WNW,11.5,-,N/A,,Clear,300,2014-02-25 17:55:00
12:15 PM,15.8,-2.7,44,30.18,10.0,WNW,10.4,-,N/A,,Clear,300,2014-02-25 18:15:00
12:35 PM,15.8,-1.5,47,30.17,10.0,West,13.8,-,N/A,,Clear,270,2014-02-25 18:35:00
12:55 PM,15.3,-2.7,45,30.18,10.0,West,16.1,-,N/A,,Clear,280,2014-02-25 18:55:00
1:15 PM,16.0,-2.0,45,30.17,10.0,West,17.3,21.9,N/A,,Clear,270,2014-02-25 19:15:00
1:35 PM,15.6,-3.6,42,30.16,10.0,West,13.8,18.4,N/A,,Clear,280,2014-02-25 19:35:00
1:55 PM,15.8,-4.2,41,30.15,10.0,West,15.0,20.7,N/A,,Clear,270,2014-02-25 19:55:00
2:15 PM,15.6,-4.7,40,30.15,10.0,West,16.1,-,N/A,,Clear,270,2014-02-25 20:15:00
2:35 PM,15.4,-5.6,39,30.15,10.0,West,13.8,-,N/A,,Clear,270,2014-02-25 20:35:00
2:55 PM,15.4,-5.8,39,30.14,10.0,West,15.0,-,N/A,,Clear,280,2014-02-25 20:55:00
3:15 PM,15.6,-4.4,41,30.13,10.0,West,15.0,-,N/A,,Clear,280,2014-02-25 21:15:00
3:35 PM,15.4,-3.3,44,30.13,10.0,West,13.8,-,N/A,,Clear,280,2014-02-25 21:35:00
3:55 PM,14.9,-5.6,40,30.12,10.0,West,13.8,-,N/A,,Clear,280,2014-02-25 21:55:00
4:15 PM,14.5,-5.1,42,30.12,10.0,West,15.0,19.6,N/A,,Clear,280,2014-02-25 22:15:00
4:35 PM,13.8,-5.3,43,30.12,10.0,West,17.3,-,N/A,,Clear,280,2014-02-25 22:35:00
4:55 PM,13.1,-5.8,43,30.12,10.0,West,18.4,-,N/A,,Clear,280,2014-02-25 22:55:00
5:15 PM,12.2,-5.6,45,30.13,10.0,WNW,12.7,19.6,N/A,,Clear,290,2014-02-25 23:15:00
5:35 PM,11.1,-6.0,46,30.13,10.0,West,11.5,-,N/A,,Clear,280,2014-02-25 23:35:00
5:55 PM,10.2,-6.0,48,30.14,10.0,West,12.7,-,N/A,,Clear,280,2014-02-25 23:55:00
6:15 PM,9.5,-6.0,50,30.15,10.0,West,10.4,-,N/A,,Clear,280,2014-02-26 00:15:00
6:35 PM,8.6,-6.2,51,30.15,10.0,West,8.1,-,N/A,,Clear,280,2014-02-26 00:35:00
6:55 PM,8.1,-6.9,51,30.16,10.0,WNW,8.1,-,N/A,,Clear,290,2014-02-26 00:55:00
7:15 PM,7.7,-6.7,52,30.16,10.0,WNW,8.1,-,N/A,,Clear,290,2014-02-26 01:15:00
7:35 PM,7.2,-7.1,52,30.16,10.0,WNW,12.7,-,N/A,,Clear,290,2014-02-26 01:35:00
7:55 PM,6.6,-7.6,52,30.17,10.0,WNW,10.4,-,N/A,,Clear,300,2014-02-26 01:55:00
8:15 PM,6.6,-8.5,50,30.17,10.0,WNW,11.5,-,N/A,,Clear,300,2014-02-26 02:15:00
8:35 PM,5.9,-8.1,53,30.18,10.0,WNW,16.1,-,N/A,,Clear,290,2014-02-26 02:35:00
8:55 PM,5.5,-8.0,54,30.19,10.0,WNW,11.5,-,N/A,,Clear,300,2014-02-26 02:55:00
9:15 PM,5.0,-8.1,55,30.20,10.0,WNW,10.4,-,N/A,,Clear,300,2014-02-26 03:15:00
9:35 PM,4.8,-8.5,54,30.21,10.0,WNW,11.5,18.4,N/A,,Clear,300,2014-02-26 03:35:00
9:55 PM,4.1,-8.5,56,30.21,10.0,WNW,11.5,-,N/A,,Clear,290,2014-02-26 03:55:00
10:15 PM,3.7,-8.1,58,30.22,10.0,NW,12.7,-,N/A,,Clear,310,2014-02-26 04:15:00
10:35 PM,3.4,-8.5,58,30.22,10.0,WNW,11.5,-,N/A,,Clear,300,2014-02-26 04:35:00
10:55 PM,3.0,-8.5,59,30.22,10.0,WNW,10.4,16.1,N/A,,Clear,300,2014-02-26 04:55:00
11:15 PM,2.5,-8.7,60,30.21,10.0,WNW,8.1,-,N/A,,Clear,300,2014-02-26 05:15:00
11:35 PM,2.1,-9.0,60,30.22,10.0,WNW,10.4,-,N/A,,Clear,300,2014-02-26 05:35:00
11:55 PM,1.4,-9.4,61,30.22,10.0,WNW,10.4,-,N/A,,Clear,300,2014-02-26 05:55:00